Accueil
METAR-TAF:

METAR-TAF

Aéroports :

Johnson County Executive Airport

Olathe, Kansas, États-Unis

latitude: 38-51-00N, longitude: 094-44-21W, altitude: 334 m

Observation

Le bulletin a été fait il y a 43 minutes, à 14:53 UTC
Vent 11 kt de nord/nord-ouest avec des rafales jusqu'à 18 kt
Température -11°C
Humidité 51%
Pression 1035 hPa
Visibilité: 16.1 km
Ciel clair

METAR: KOJC 191453Z 34011G18KT 10SM CLR M11/M19 A3055 RMK AO2 SLP362 T11111189 51023 $

Heure: 09:36 (15:36 UTC)


TAF: absent

Observations et prévisions météorologiques de plus de 4000 aéroports (messages METAR et TAF).

Les stations disponibles sont représentées par des disques jaunes et rouges sur la carte.

Passer la souris dessus pour voir le nom de la station.

Cliquer dessus pour voir les observations et prévisions météorologiques.

Pour changer de carte: cliquez sur les boutons verts avec une croix noire pour zoomer, sur le bouton vert avec un tiret pour effectuer un zoom arrière, ou sur les flèches vertes pour les cartes adjacentes.


METAR-TAF: